This is the latest recevied weather packets stored in our database for station/object YO2MAS-13. If no packets are shown the sender has not sent any weather packets the latest 10 day(s).
| Time | Temp. | Humidity | Pressure | Rain* | Wind** | Luminosity | Snow |
|---|---|---|---|---|---|---|---|
| 1777410915 | 16.11° C | 53% | 1021.1 hPa | - | - | - | - |
| 1777410015 | 16.11° C | 58% | 1021.1 hPa | - | - | - | - |
| 1777409115 | 16.67° C | 64% | 1021 hPa | - | - | - | - |
| 1777408215 | 15.56° C | 50% | 1021 hPa | - | - | - | - |
| 1777407786 | 16.11° C | 50% | 1020.9 hPa | - | - | - | - |
| 1777407315 | 16.11° C | 50% | 1020.9 hPa | - | - | - | - |
| 1777406415 | 16.67° C | 49% | 1020.9 hPa | - | - | - | - |
| 1777405515 | 17.22° C | 47% | 1020.8 hPa | - | - | - | - |
| 1777405166 | 17.22° C | 48% | 1020.8 hPa | - | - | - | - |
| 1777404615 | 17.22° C | 48% | 1020.8 hPa | - | - | - | - |
| 1777403715 | 17.22° C | 47% | 1020.8 hPa | - | - | - | - |
| 1777402815 | 17.78° C | 50% | 1020.7 hPa | - | - | - | - |
| 1777401915 | 17.78° C | 54% | 1020.7 hPa | - | - | - | - |
| 1777401015 | 17.78° C | 52% | 1020.7 hPa | - | - | - | - |
| 1777400115 | 18.33° C | 54% | 1020.6 hPa | - | - | - | - |
| 1777399215 | 18.33° C | 48% | 1020.5 hPa | - | - | - | - |
| 1777398800 | 18.33° C | 47% | 1020.4 hPa | - | - | - | - |
| 1777398315 | 18.33° C | 47% | 1020.4 hPa | - | - | - | - |
| 1777397417 | 18.33° C | 44% | 1020.3 hPa | - | - | - | - |
| 1777396515 | 19.44° C | 44% | 1020.3 hPa | - | - | - | - |
| 1777395615 | 20.56° C | 44% | 1020.1 hPa | - | - | - | - |
| 1777394715 | 20.56° C | 39% | 1019.9 hPa | - | - | - | - |
| 1777393815 | 21.11° C | 41% | 1019.9 hPa | - | - | - | - |
| 1777393344 | 22.22° C | 38% | 1019.8 hPa | - | - | - | - |
| 1777392915 | 22.22° C | 38% | 1019.8 hPa | - | - | - | - |
* Rain since midnight (hover to see other rain measurements)
** Current wind speed in m/s (hover to see current wind gust speed)